This demonstration page uses our WeatherBlox Daily Observations layout. Learn more.

Left ArrowRight Arrow

44.8408, -93.29828

Hourly Observations for September 14, 2022

Temp ( °F °C ) Dew Point ( °F °C ) Humidity (%) Winds ( mph kmh ) Pressure ( in mb ) Visibility ( mi km ) Precip ( " mm )
12:53 am 00:53 Mostly Clear 64 17.8 52 11.1 65 65 Calm 30.00 1016 10 16 0.00 0.00
1:53 am 01:53 Mostly Clear 62 16.7 53 11.7 72 72 Calm 30.01 1016 10 16 0.00 0.00
2:53 am 02:53 Clear 60 15.6 53 11.7 78 78 Calm 30.02 1017 10 16 0.00 0.00
3:53 am 03:53 Clear 59 15 54 12.2 83 83 ESE 5 7 30.02 1017 10 16 0.00 0.00
4:53 am 04:53 Clear 59 15 53 11.7 81 81 Calm 30.03 1017 10 16 0.00 0.00
5:53 am 05:53 Clear 57 13.9 52 11.1 83 83 ENE 3 6 30.05 1018 10 16 0.00 0.00
6:53 am 06:53 Partly Cloudy with Patchy Fog 57 13.9 53 11.7 87 87 E 5 7 30.06 1018 10 16 0.00 0.00
7:53 am 07:53 Mostly Sunny 59 15 55 12.8 87 87 E 8 13 30.08 1019 10 16 0.00 0.00
8:53 am 08:53 Mostly Sunny 62 16.7 55 12.8 78 78 SE 7 11 30.09 1019 10 16 0.00 0.00
9:53 am 09:53 Mostly Sunny 66 18.9 54 12.2 65 65 ESE 12 19 30.09 1019 10 16 0.00 0.00
10:53 am 10:53 Mostly Sunny 70 21.1 55 12.8 59 59 ESE 10 17 30.09 1019 10 16 0.00 0.00
11:53 am 11:53 Mostly Sunny 73 22.8 54 12.2 51 51 SE 13 20 30.09 1019 10 16 0.00 0.00
12:53 pm 12:53 Partly Cloudy 76 24.4 55 12.8 48 48 ESE 13 20 30.08 1019 10 16 0.00 0.00
1:53 pm 13:53 Partly Cloudy 78 25.6 55 12.8 45 45 ESE 15 24 30.06 1018 10 16 0.00 0.00
2:53 pm 14:53 Mostly Cloudy 78 25.6 56 13.3 47 47 SE 12 19 30.05 1018 10 16 0.00 0.00
3:53 pm 15:53 Mostly Cloudy 77 25 57 13.9 50 50 ESE 14 22 30.04 1017 10 16 0.00 0.00
4:53 pm 16:53 Mostly Cloudy 77 25 58 14.4 52 52 ESE 13 20 30.02 1017 10 16 0.00 0.00
5:53 pm 17:53 Mostly Cloudy 76 24.4 58 14.4 54 54 ESE 16 26 30.02 1017 10 16 0.00 0.00
6:53 pm 18:53 Mostly Cloudy 74 23.3 59 15 60 60 SE 13 20 30.02 1017 10 16 0.00 0.00
7:53 pm 19:53 Mostly Cloudy 72 22.2 59 15 64 64 SE 12 19 30.03 1017 10 16 0.00 0.00
8:53 pm 20:53 Mostly Cloudy 71 21.7 59 15 66 66 SE 16 26 30.03 1017 10 16 0.00 0.00
9:53 pm 21:53 Mostly Cloudy 70 21.1 58 14.4 66 66 SE 15 24 30.04 1017 10 16 0.00 0.00
10:53 pm 22:53 Mostly Cloudy 68 20 58 14.4 70 70 SE 14 22 30.04 1017 10 16 0.00 0.00
11:53 pm 23:53 Mostly Cloudy 67 19.4 58 14.4 73 73 SE 14 22 30.04 1017 10 16 0.00 0.00

Powered by AerisWeather